Weather History for Barcelona, Spain

Change the Weather History Date:

Sunday, January 20, 2013

  Actual Average Record
Temperature  
Mean Temperature 51 °F -  
Max Temperature 57 °F 55 °F 64 °F (1998)
Min Temperature 45 °F 41 °F 35 °F (2002)
Degree Days  
Heating Degree Days 14    
Growing Degree Days 1 (Base 50)    
Moisture  
Dew Point 40 °F    
Average Humidity 65    
Maximum Humidity 93    
Minimum Humidity 38    
Precipitation  
Precipitation 0.08 in 0.05 in - ()
Sea Level Pressure  
Sea Level Pressure 29.31 in    
Wind  
Wind Speed 8 mph ()    
Max Wind Speed 22 mph    
Max Gust Speed 30 mph    
Visibility 6.9 miles    
Events Rain    
Averages and records for this station are not official NWS values.
T = Trace of Precipitation, MM = Missing Value Source: Averaged Metar Reports

Daily Weather History Graph

Daily Weather History Graph

Search for Another Location

Airport:

Trip Planner

Search our weather history database for the weather conditions in past years. The results will help you decide how hot, cold, wet, or windy it might be!

Date:

Astronomy

Jan. 20, 2013 Rise Set
Actual Time 8:12 AM CET 5:53 PM CET
Civil Twilight 7:42 AM CET 6:23 PM CET
Nautical Twilight 7:08 AM CET 6:57 PM CET
Astronomical Twilight 6:35 AM CET 7:30 PM CET
Moon 12:45 PM CET (1/20) 2:29 AM CET (1/20)
Length of Visible Light 10h 40m
Length of Day
9h 40m
Waxing Gibbous, 64% of the Moon is Illuminated
Jan 20
Waxing Gibbous
Jan 27
Full
Feb 3
Last Quarter
Feb 10
New
Feb 17
First Quarter

Hourly Weather History & Observations

Time (CET) Temp. Windchill Dew Point Humidity Pressure Visibility Wind Dir Wind Speed Gust Speed Precip Events Conditions
12:00 AM 50.0 °F - 44.6 °F 82% 29.09 in 6.2 mi Calm Calm - N/A Rain Light Rain Showers
12:30 AM 50.0 °F - 46.4 °F 87% 29.09 in 6.2 mi NW 3.5 mph - N/A Rain Light Rain Showers
1:00 AM 49 °F - 46 °F 86% 29.11 in 4 mi WNW 8.1 mph - - Rain Rain
1:00 AM 50.0 °F - 46.4 °F 87% 29.09 in 4.3 mi WNW 6.9 mph - N/A Rain Rain
1:30 AM 50.0 °F - 46.4 °F 87% 29.09 in 6.2 mi WNW 6.9 mph - N/A Rain Light Rain
2:00 AM 51.8 °F - 46.4 °F 82% 29.09 in 6.2 mi WNW 9.2 mph - N/A Rain Light Rain
2:30 AM 50.0 °F - 46.4 °F 87% 29.09 in 6.2 mi NW 6.9 mph - N/A   Partly Cloudy
3:00 AM 50.0 °F - 44.6 °F 82% 29.09 in 6.2 mi NW 10.4 mph - N/A   Partly Cloudy
3:30 AM 48.2 °F - 44.6 °F 87% 29.09 in 6.2 mi NW 15.0 mph - N/A   Partly Cloudy
4:00 AM 48.2 °F - 44.6 °F 87% 29.09 in 6.2 mi NNW 10.4 mph - N/A   Partly Cloudy
4:30 AM 46.4 °F 42.9 °F 44.6 °F 93% 29.12 in 6.2 mi WNW 6.9 mph - N/A   Partly Cloudy
5:00 AM 48.2 °F - 44.6 °F 87% 29.12 in 6.2 mi NW 8.1 mph - N/A   Partly Cloudy
5:30 AM 46.4 °F 44.3 °F 42.8 °F 87% 29.12 in 6.2 mi NNW 4.6 mph - N/A   Partly Cloudy
6:00 AM 46.4 °F 41.9 °F 42.8 °F 87% 29.15 in 6.2 mi WNW 9.2 mph - N/A   Partly Cloudy
6:30 AM 48.2 °F - 42.8 °F 82% 29.18 in 6.2 mi WNW 11.5 mph - N/A   Partly Cloudy
7:00 AM 49 °F - 41 °F 64% 29.20 in 19 mi NW 10.4 mph - -   Partly Cloudy
7:00 AM 50.0 °F - 42.8 °F 76% 29.18 in 6.2 mi WNW 10.4 mph - N/A   Partly Cloudy
7:30 AM 50.0 °F - 41.0 °F 71% 29.21 in 6.2 mi WNW 10.4 mph 21.9 mph N/A   Partly Cloudy
8:00 AM 48.2 °F - 41.0 °F 76% 29.24 in 6.2 mi WNW 5.8 mph - N/A   Partly Cloudy
8:30 AM 48.2 °F - 41.0 °F 76% 29.24 in 6.2 mi SSW 1.2 mph - N/A   Partly Cloudy
9:00 AM 48.2 °F - 42.8 °F 82% 29.27 in 6.2 mi NNW 5.8 mph - N/A   Partly Cloudy
9:30 AM 50.0 °F - 42.8 °F 76% 29.30 in 6.2 mi NNW 12.7 mph - N/A   Partly Cloudy
10:00 AM 50.0 °F - 41.0 °F 71% 29.33 in 6.2 mi NW 15.0 mph 26.5 mph N/A   Partly Cloudy
10:30 AM 51.8 °F - 41.0 °F 67% 29.33 in 6.2 mi NW 13.8 mph - N/A   Partly Cloudy
11:00 AM 51.8 °F - 41.0 °F 67% 29.33 in 6.2 mi NW 15.0 mph - N/A   Partly Cloudy
11:30 AM 51.8 °F - 41.0 °F 67% 29.36 in 6.2 mi NW 16.1 mph - N/A   Partly Cloudy
12:00 PM 51.8 °F - 41.0 °F 67% 29.36 in 6.2 mi NW 12.7 mph - N/A   Partly Cloudy
12:30 PM 53.6 °F - 41.0 °F 62% 29.36 in 6.2 mi NW 9.2 mph - N/A   Partly Cloudy
1:00 PM 55 °F - 40 °F 46% 29.38 in 19 mi West 6.9 mph - -   Scattered Clouds
1:00 PM 55.4 °F - 39.2 °F 54% 29.36 in 6.2 mi NW 5.8 mph - N/A   Partly Cloudy
1:30 PM 55.4 °F - 41.0 °F 58% 29.36 in 6.2 mi West 9.2 mph - N/A   Partly Cloudy
2:00 PM 55.4 °F - 39.2 °F 54% 29.36 in 6.2 mi WNW 10.4 mph - N/A   Partly Cloudy
2:30 PM 57.2 °F - 37.4 °F 48% 29.39 in 6.2 mi West 15.0 mph 27.6 mph N/A   Partly Cloudy
3:00 PM 57.2 °F - 41.0 °F 55% 29.39 in 6.2 mi West 15.0 mph - N/A   Partly Cloudy
3:30 PM 57.2 °F - 37.4 °F 48% 29.39 in 6.2 mi WNW 17.3 mph - N/A   Partly Cloudy
4:00 PM 57.2 °F - 35.6 °F 44% 29.42 in 6.2 mi West 18.4 mph 29.9 mph N/A   Partly Cloudy
4:30 PM 57.2 °F - 37.4 °F 48% 29.42 in 6.2 mi WNW 15.0 mph - N/A   Partly Cloudy
5:00 PM 55.4 °F - 37.4 °F 51% 29.42 in 6.2 mi West 13.8 mph 25.3 mph N/A   Partly Cloudy
5:30 PM 55.4 °F - 37.4 °F 51% 29.44 in 6.2 mi WNW 17.3 mph - N/A   Partly Cloudy
6:00 PM 53.6 °F - 35.6 °F 51% 29.44 in 6.2 mi WNW 11.5 mph - N/A   Partly Cloudy
6:30 PM 53.6 °F - 35.6 °F 51% 29.44 in 6.2 mi WNW 16.1 mph - N/A   Partly Cloudy
7:00 PM 52 °F - 34 °F 38% 29.48 in 19 mi WNW 20.7 mph - -   Scattered Clouds
7:00 PM 53.6 °F - 35.6 °F 51% 29.47 in 6.2 mi WNW 15.0 mph - N/A   Partly Cloudy
7:30 PM 53.6 °F - 33.8 °F 47% 29.47 in 6.2 mi NW 21.9 mph - N/A   Partly Cloudy
8:00 PM 53.6 °F - 30.2 °F 41% 29.47 in 6.2 mi NW 20.7 mph - N/A   Partly Cloudy
8:30 PM 53.6 °F - 30.2 °F 41% 29.50 in 6.2 mi WNW 15.0 mph - N/A   Partly Cloudy
9:00 PM 53.6 °F - 30.2 °F 41% 29.53 in 6.2 mi WNW 9.2 mph - N/A   Partly Cloudy
9:30 PM 53.6 °F - 32.0 °F 44% 29.53 in 6.2 mi West 9.2 mph - N/A   Partly Cloudy
10:00 PM 53.6 °F - 32.0 °F 44% 29.53 in 6.2 mi WNW 9.2 mph 20.7 mph N/A   Partly Cloudy
10:30 PM 53.6 °F - 32.0 °F 44% 29.53 in 6.2 mi NNW 4.6 mph - N/A   Partly Cloudy
11:00 PM 51.8 °F - 32.0 °F 47% 29.53 in 6.2 mi Variable 1.2 mph - N/A   Partly Cloudy
11:30 PM 51.8 °F - 33.8 °F 50% 29.53 in 6.2 mi NW 4.6 mph - N/A   Partly Cloudy